Wind_Speed
44 43 42 42 41 41 41 41 40 39 39 38 38 38 38 38 38 39 39 39 39 40 40 40 40 40 40 41 41 42 42 43 43 43 42 42 41 42
45 44 44 43 43 42 41 41 41 41 40 40 40 40 40 40 40 41 41 41 41 42 42 42 42 42 43 43 44 44 44 43 43 43 42 42 42 43
46 46 45 45 45 45 44 44 43 42 42 42 41 41 41 42 42 42 42 43 43 43 43 43 43 43 44 44 45 44 44 44 44 44 44 43 43 43
46 46 46 46 46 46 46 46 45 45 44 43 42 43 43 43 43 43 42 42 43 43 43 44 45 45 44 44 44 44 44 44 45 44 45 45 45 45
48 47 47 47 47 47 47 47 47 46 45 45 45 45 45 45 44 44 43 44 44 44 44 44 45 45 44 44 44 44 44 44 44 44 45 45 46 46
50 49 48 48 48 48 48 48 48 47 47 46 46 46 45 45 45 45 44 44 44 44 44 44 44 43 43 43 43 43 42 42 43 43 44 45 45 46
51 50 50 49 50 50 50 50 49 49 48 48 47 46 45 45 46 45 45 45 44 44 44 44 43 43 43 43 42 42 42 42 43 43 44 44 45 45
52 52 51 51 51 51 51 50 50 50 49 49 48 47 47 47 46 46 46 45 45 44 45 44 43 42 42 42 41 41 42 43 43 44 45 45 45 45
52 52 52 52 52 52 51 51 50 50 50 50 49 49 48 48 48 47 46 46 45 45 45 44 44 43 43 42 42 42 43 43 44 44 45 45 45 45
53 53 52 52 53 52 52 51 51 50 50 50 49 49 48 48 48 48 47 47 46 45 45 44 44 44 44 44 43 44 44 44 45 45 45 44 44 44
52 53 53 52 53 53 53 52 51 51 50 50 49 48 48 48 48 48 48 47 46 45 46 45 45 45 45 45 45 45 45 46 46 45 45 44 43 43
52 53 53 52 52 53 53 52 52 51 51 50 50 49 48 48 48 49 48 47 47 46 46 46 46 46 46 46 46 46 46 46 46 45 44 43 42 41
50 50 51 51 52 52 52 51 51 51 50 50 49 49 49 48 48 49 48 48 47 47 47 47 47 47 47 46 46 46 46 46 45 44 43 42 41 41
48 49 49 49 50 50 50 50 50 51 50 50 49 49 49 48 48 47 47 47 47 47 47 47 47 47 47 47 46 46 45 45 44 43 42 42 42 42
47 47 48 48 48 48 49 49 49 49 50 50 50 49 49 48 48 47 47 47 47 47 46 47 47 47 47 46 46 45 45 44 44 43 43 42 42 42
45 45 46 47 47 47 47 48 48 49 49 49 49 48 48 49 48 48 47 47 46 46 46 46 46 46 46 46 46 45 44 44 43 43 42 41 41 40
44 44 45 45 46 46 46 46 46 47 47 47 47 47 47 47 47 47 46 46 46 45 45 45 45 46 46 45 45 44 44 43 42 42 41 40 40 40
43 43 43 44 44 44 44 44 45 44 45 46 46 46 46 45 45 46 46 46 46 46 46 46 46 46 46 45 45 44 43 42 42 41 41 40 39 40
40 40 40 41 41 42 42 42 42 43 43 44 44 45 45 45 45 45 45 46 46 46 46 46 45 46 46 45 44 43 42 41 41 40 40 39 39 40
38 38 38 38 39 39 39 40 41 41 42 42 42 43 44 44 44 44 45 45 45 45 44 43 43 43 43 43 41 41 40 40 39 39 39 39 39 39
36 36 36 36 36 37 37 38 39 40 40 41 41 41 42 43 43 44 44 44 44 43 43 42 41 41 40 40 40 39 39 39 39 38 38 38 38 37
33 34 34 35 35 35 36 36 36 37 38 38 39 39 40 41 42 42 42 42 42 41 41 41 40 39 39 39 38 38 38 38 37 37 37 37 37 36
32 32 33 33 33 34 34 34 34 35 35 36 37 38 39 39 40 40 40 40 40 40 40 39 38 38 38 38 37 37 37 37 37 36 36 36 35 35
Wind_Direction
251 252 254 255 256 258 260 261 262 263 264 266 268 270 271 272 273 274 274 276 276 277 279 280 280 281 281 280 281 283 283 284 285 286 286 286 287 287
252 252 253 254 256 257 260 261 262 263 265 266 268 270 271 273 273 274 275 276 276 277 278 279 280 281 281 281 281 282 283 284 284 284 284 285 286 287
252 252 253 254 256 258 259 261 262 264 265 266 267 268 270 272 273 275 276 276 277 277 278 279 280 281 282 282 282 282 283 283 283 283 284 285 286 286
252 253 254 255 256 258 259 261 262 264 265 266 267 268 270 271 273 275 276 276 277 277 278 280 280 281 282 282 283 283 283 283 283 283 283 284 285 286
253 253 254 255 256 258 259 260 262 263 265 266 267 268 269 271 272 274 275 276 276 277 278 280 281 282 282 282 283 283 283 284 284 284 284 285 285 286
253 253 254 255 256 257 259 260 262 263 265 265 266 267 269 270 272 273 275 276 277 278 279 279 280 281 282 282 283 283 283 284 285 286 286 286 286 287
253 253 254 255 256 258 259 260 262 262 263 264 266 267 268 270 272 273 274 275 276 277 278 279 280 281 281 282 283 283 284 284 285 286 287 287 287 287
254 254 255 256 257 258 259 260 261 262 263 264 265 267 268 270 271 272 273 274 275 276 276 277 279 280 280 280 281 283 285 286 286 287 287 288 288 288
254 255 255 256 257 258 258 259 260 262 263 264 265 266 267 269 271 272 273 274 275 275 275 276 277 279 279 279 280 282 284 286 287 288 289 289 288 288
254 255 255 256 257 257 258 259 260 261 262 263 264 266 267 269 270 272 273 274 274 274 274 275 276 277 278 279 280 282 283 285 287 289 289 289 288 288
254 254 255 256 257 257 258 259 260 261 262 263 264 266 267 268 269 271 272 273 273 273 274 274 275 276 278 279 280 281 283 285 287 288 288 289 288 287
254 255 255 255 256 257 258 259 259 260 262 263 264 265 266 268 269 270 271 273 273 273 273 274 275 276 277 278 279 281 282 284 286 287 288 287 287 286
255 255 255 255 256 257 258 258 259 260 261 261 263 264 266 267 268 269 271 272 272 272 273 274 275 275 277 278 279 280 282 283 284 285 285 285 286 286
255 255 255 255 256 257 257 258 259 259 260 261 262 263 265 266 268 269 270 271 272 272 272 274 274 275 277 277 278 279 280 281 282 282 283 284 284 285
255 255 255 256 257 257 258 259 260 260 260 261 262 263 265 266 266 268 269 270 271 272 273 273 274 276 276 277 277 278 278 279 280 281 282 283 284 285
256 256 255 255 256 257 258 259 259 260 260 261 262 263 264 265 265 267 269 269 270 271 272 274 274 275 276 276 277 277 278 278 279 280 281 283 284 284
255 255 255 254 255 257 258 259 259 259 260 261 261 262 263 265 266 266 268 268 269 270 272 274 275 275 275 276 277 277 277 277 278 279 280 282 283 283
255 255 254 253 254 255 257 258 259 260 261 261 261 261 263 264 265 267 268 269 269 270 272 273 275 275 275 275 276 276 275 276 276 278 279 281 282 283
255 255 254 253 254 255 256 258 259 260 261 261 261 262 263 264 265 267 269 270 270 271 273 273 274 274 275 275 274 274 274 275 276 277 279 280 281 282
254 254 253 253 253 254 256 258 259 260 261 262 262 263 264 265 266 268 269 270 270 272 273 275 275 275 275 274 273 273 273 274 275 277 278 280 281 281
253 253 253 252 254 255 257 259 260 261 261 262 263 263 264 266 267 269 270 270 270 271 272 274 276 276 274 272 271 272 273 275 275 276 278 279 280 280
253 254 253 253 255 257 259 260 261 262 262 263 263 264 266 267 268 269 270 270 270 271 271 273 274 274 273 273 272 272 274 275 276 277 278 279 280 280
254 253 253 254 256 258 259 260 261 262 263 264 265 266 266 267 269 270 270 270 270 270 270 271 271 272 273 272 272 272 273 273 275 277 278 279 280 281
Height
5730 5732 5735 5737 5739 5740 5742 5743 5744 5745 5746 5747 5747 5746 5746 5745 5745 5744 5743 5742 5741 5740 5738 5737 5735 5734 5732 5731 5729 5727 5726 5724 5722 5720 5718 5716 5714 5711
5719 5721 5724 5726 5728 5729 5731 5732 5733 5734 5735 5737 5737 5736 5736 5735 5734 5734 5733 5731 5730 5729 5727 5726 5724 5723 5721 5719 5718 5716 5714 5712 5710 5708 5707 5705 5703 5700
5707 5710 5712 5714 5716 5718 5719 5721 5722 5723 5724 5726 5726 5726 5725 5724 5723 5722 5721 5720 5719 5717 5716 5714 5713 5711 5709 5707 5705 5704 5702 5700 5698 5697 5695 5693 5691 5689
5695 5698 5700 5702 5704 5706 5708 5709 5710 5711 5712 5713 5714 5714 5714 5713 5712 5711 5710 5708 5707 5706 5704 5702 5701 5699 5697 5695 5693 5691 5690 5688 5686 5685 5683 5681 5679 5676
5682 5685 5688 5690 5692 5694 5695 5697 5698 5699 5700 5701 5702 5702 5701 5701 5700 5699 5698 5697 5695 5694 5692 5690 5689 5687 5685 5683 5681 5679 5677 5676 5674 5672 5670 5668 5666 5664
5669 5672 5675 5677 5679 5681 5682 5684 5685 5686 5687 5688 5689 5689 5689 5688 5688 5687 5686 5685 5684 5682 5680 5678 5676 5675 5673 5671 5669 5668 5665 5663 5661 5659 5657 5655 5653 5651
5656 5659 5661 5663 5665 5667 5669 5671 5672 5673 5674 5675 5676 5676 5677 5676 5676 5675 5674 5673 5672 5670 5668 5666 5665 5663 5661 5659 5658 5656 5654 5652 5650 5648 5645 5643 5640 5638
5642 5645 5647 5650 5652 5654 5656 5657 5658 5659 5661 5662 5663 5663 5664 5663 5663 5662 5662 5661 5661 5659 5656 5655 5653 5652 5650 5648 5647 5645 5643 5641 5638 5636 5633 5630 5628 5625
5628 5631 5633 5636 5638 5640 5642 5643 5645 5646 5647 5649 5649 5650 5651 5651 5650 5650 5648 5647 5647 5646 5644 5643 5641 5640 5639 5637 5635 5634 5632 5629 5627 5624 5621 5618 5615 5613
5614 5617 5619 5622 5624 5626 5628 5629 5631 5633 5634 5635 5636 5637 5637 5636 5636 5636 5635 5634 5634 5633 5631 5631 5630 5628 5627 5625 5623 5622 5620 5617 5615 5612 5609 5606 5603 5600
5599 5602 5604 5607 5609 5611 5614 5616 5617 5619 5619 5621 5622 5622 5623 5623 5622 5622 5621 5621 5621 5621 5619 5618 5618 5616 5615 5613 5611 5609 5607 5605 5602 5600 5597 5594 5591 5588
5586 5588 5590 5592 5594 5596 5598 5600 5603 5604 5605 5607 5608 5608 5609 5609 5609 5608 5608 5608 5608 5608 5607 5605 5605 5603 5603 5602 5599 5597 5594 5592 5590 5587 5584 5581 5579 5576
5571 5573 5576 5578 5580 5581 5583 5586 5588 5590 5591 5592 5593 5594 5595 5595 5595 5595 5594 5594 5594 5594 5594 5592 5591 5590 5589 5589 5587 5584 5582 5579 5577 5575 5572 5569 5567 5565
5557 5559 5562 5563 5565 5567 5569 5571 5573 5575 5576 5578 5579 5580 5581 5581 5582 5581 5581 5580 5580 5581 5580 5578 5578 5577 5576 5575 5574 5572 5569 5567 5564 5562 5560 5557 5555 5553
5543 5545 5548 5549 5551 5553 5555 5557 5558 5560 5561 5563 5565 5566 5567 5568 5568 5567 5567 5567 5566 5566 5566 5565 5564 5563 5562 5561 5560 5558 5556 5554 5552 5550 5548 5545 5543 5541
5530 5532 5534 5536 5538 5540 5541 5543 5544 5546 5547 5549 5551 5552 5553 5553 5554 5554 5553 5553 5553 5553 5552 5551 5550 5549 5548 5547 5546 5545 5543 5541 5540 5538 5536 5533 5531 5529
5516 5518 5520 5523 5525 5527 5528 5530 5531 5532 5534 5535 5537 5538 5539 5539 5540 5540 5540 5540 5540 5540 5539 5538 5536 5535 5535 5534 5532 5531 5530 5528 5527 5525 5524 5522 5520 5518
5504 5506 5508 5510 5512 5514 5515 5517 5518 5519 5520 5522 5523 5525 5526 5526 5527 5527 5527 5526 5526 5526 5526 5525 5523 5522 5521 5520 5519 5518 5517 5516 5515 5513 5512 5510 5509 5506
5492 5494 5496 5498 5500 5501 5503 5504 5506 5507 5508 5509 5510 5511 5512 5513 5513 5514 5513 5513 5513 5513 5512 5511 5510 5509 5508 5507 5506 5505 5505 5504 5502 5501 5500 5499 5497 5495
5480 5482 5484 5486 5488 5490 5491 5492 5493 5494 5495 5496 5497 5498 5499 5500 5500 5500 5500 5500 5500 5499 5499 5498 5497 5496 5495 5495 5494 5493 5492 5491 5490 5489 5488 5487 5485 5483
5470 5471 5473 5475 5477 5479 5480 5480 5481 5482 5483 5484 5485 5486 5486 5487 5487 5487 5487 5487 5486 5486 5486 5485 5484 5483 5482 5481 5481 5481 5480 5479 5478 5478 5477 5476 5474 5473
5460 5461 5463 5465 5467 5468 5469 5469 5470 5471 5471 5472 5473 5473 5474 5474 5474 5474 5474 5474 5473 5473 5472 5472 5471 5470 5470 5469 5469 5469 5469 5468 5466 5465 5464 5464 5462 5462
5450 5451 5453 5455 5456 5457 5458 5459 5459 5460 5460 5461 5461 5462 5462 5462 5462 5462 5461 5461 5461 5460 5460 5460 5459 5459 5458 5458 5457 5457 5457 5456 5455 5454 5453 5452 5451 5450